JH0FOG-13 Weather Reports


Display with metric or nautical units.
time (UTC)temp
F
wind
direction
speed
MPH
gust
MPH
rain 1hr
in
rain 24hr
in
rain mn
in
humidity
%
barometer
mb
20260508220004 52 329 3.0 11.0 0.18 1.37 0.18 89 1012.7
20260508214003 53 71 2.0 10.0 0.11 1.30 0.11 88 1011.9
20260508212003 54 121 2.0 6.0 0.01 1.20 0.01 83 1010.7
20260508210003 54 151 3.0 11.0 0.00 1.19 0.00 80 1010.1
20260508204003 54 115 3.0 10.0 0.00 1.19 0.00 80 1010.1
20260508202003 54 139 4.0 13.0 0.00 1.19 0.00 77 1010.1
20260508200003 55 73 3.0 12.0 0.00 1.19 0.00 76 1009.6
20260508194003 55 87 3.0 13.0 0.00 1.19 0.00 76 1009.1
20260508192003 55 66 3.0 12.0 0.00 1.19 0.00 74 1009.0
20260508190003 54 115 2.0 14.0 0.00 1.19 0.00 73 1008.7
20260508184003 55 124 2.0 11.0 0.00 1.19 0.00 71 1008.4
20260508182003 55 131 3.0 11.0 0.00 1.19 0.00 70 1008.0
20260508180003 55 32 2.0 8.0 0.00 1.19 0.00 72 1007.9
20260508174003 55 96 2.0 7.0 0.00 1.19 0.00 74 1007.7
20260508172003 55 51 2.0 9.0 0.00 1.19 0.00 73 1007.7
20260508170003 52 162 0.0 3.0 0.00 1.19 0.00 81 1007.6
20260508164003 51 155 0.0 2.0 0.00 1.19 0.00 81 1007.5
20260508162003 52 57 0.0 1.0 0.00 1.19 0.00 82 1007.8
20260508160003 52 137 0.0 3.0 0.00 1.19 0.00 82 1008.2
20260508154003 53 260 0.0 1.0 0.00 1.19 0.00 84 1008.4
20260508152003 54 101 0.0 1.0 0.00 1.19 0.00 81 1008.4
20260508150005 55 34 1.0 5.0 0.00 1.19 0.00 79 1008.9
20260508144003 56 126 2.0 9.0 0.00 1.19 1.19 79 1009.0
20260508142004 56 93 1.0 8.0 0.00 1.19 1.19 80 1008.9
20260508140004 55 135 2.0 6.0 0.00 1.19 1.19 81 1008.6
20260508134003 56 95 2.0 9.0 0.00 1.19 1.19 82 1008.8
20260508132003 56 148 1.0 7.0 0.06 1.19 1.19 85 1008.6
20260508130004 56 136 1.0 5.0 0.09 1.19 1.19 87 1008.8
20260508124003 56 125 2.0 11.0 0.10 1.19 1.19 88 1009.1
20260508122003 56 347 1.0 7.0 0.05 1.13 1.13 90 1009.0
20260508120004 56 103 1.0 5.0 0.03 1.10 1.10 92 1009.0
20260508114003 56 84 0.0 3.0 0.02 1.09 1.09 93 1008.8
20260508112003 56 36 0.0 2.0 0.04 1.08 1.08 94 1008.5
20260508110004 56 0 0.0 0.0 0.08 1.07 1.07 94 1008.2
20260508104003 56 168 0.0 2.0 0.25 1.07 1.07 93 1008.1
20260508102003 57 153 0.0 2.0 0.31 1.04 1.04 94 1007.7
20260508100004 57 172 0.0 2.0 0.28 0.99 0.99 94 1006.9
20260508094003 58 329 0.0 1.0 0.17 0.81 0.81 94 1006.5
20260508092003 58 0 0.0 0.0 0.24 0.73 0.73 94 1006.2
20260508090004 58 317 0.0 2.0 0.40 0.71 0.71 93 1006.2
20260508084003 59 323 1.0 7.0 0.41 0.64 0.64 92 1006.2
20260508082003 60 332 2.0 9.0 0.27 0.49 0.49 92 1005.4
20260508074003 61 357 0.0 1.0 0.09 0.22 0.22 92 1005.0
20260508072003 62 330 0.0 1.0 0.10 0.22 0.22 92 1005.0
20260508070003 62 0 0.0 0.0 0.08 0.18 0.18 91 1005.3
20260508064003 62 31 0.0 1.0 0.09 0.13 0.13 89 1005.4
20260508062003 62 130 0.0 1.0 0.12 0.12 0.12 88 1005.1
20260508060003 64 67 0.0 1.0 0.10 0.10 0.10 86 1005.3
20260508054004 66 137 0.0 3.0 0.04 0.04 0.04 77 1005.6
20260508052004 68 290 0.0 2.0 0.00 0.00 0.00 72 1005.0
20260508050004 68 191 1.0 3.0 0.00 0.00 0.00 71 1005.4
20260508044004 69 65 2.0 9.0 0.00 0.00 0.00 67 1005.9
20260508042004 70 339 1.0 4.0 0.00 0.00 0.00 65 1005.9
20260508040004 71 342 2.0 5.0 0.00 0.00 0.00 64 1005.7
20260508032004 71 328 5.0 15.0 0.00 0.00 0.00 64 1006.0
20260508030004 74 330 2.0 5.0 0.00 0.00 0.00 61 1005.3
20260508024004 74 320 3.0 8.0 0.00 0.00 0.00 65 1005.4
20260508022004 74 326 1.0 4.0 0.00 0.00 0.00 61 1005.3
20260508020004 74 325 2.0 4.0 0.00 0.00 0.00 63 1005.3
20260508014003 74 329 0.0 3.0 0.00 0.00 0.00 62 1005.7
20260508012003 73 350 0.0 2.0 0.00 0.00 0.00 62 1005.8
20260508010004 72 353 0.0 2.0 0.00 0.00 0.00 66 1006.3
20260508004004 71 7 0.0 1.0 0.00 0.00 0.00 66 1006.3
20260508002004 71 19 0.0 2.0 0.00 0.00 0.00 66 1006.7
20260507234004 68 334 0.0 2.0 0.00 0.00 0.00 73 1007.2
20260507232003 69 22 0.0 2.0 0.00 0.00 0.00 68 1007.4